Regional Weather Roundup
Issued by NWS

Home | Current Version | Previous Version | Graphics & Text | Print | Product List | Glossary On
Versions: 1 2 3 4 5 6 7 8 9 10 11 12 13 14 15 16 17 18 19 20 21 22 23 24 25 26 27 28 29 30 31 32 33 34 35 36 37 38 39 40 41 42 43 44 45 46 47 48 49 50
000
ASUS43 KLOT 161408
RWRIL

ILLINOIS REGIONAL WEATHER ROUNDUP
NATIONAL WEATHER SERVICE CHICAGO/ROMEOVILLE IL
900 AM CDT WED AUG 16 2017

NOTE: "FAIR" INDICATES FEW OR NO CLOUDS BELOW 12,000 FEET WITH NO
SIGNIFICANT WEATHER AND/OR OBSTRUCTIONS TO VISIBILITY.

* THESE STATIONS ARE NOT UNDER NWS QUALITY CONTROL. THEY ALSO MAY NOT
  REPORT WEATHER SUCH AS PRECIPITATION OR FOG.

ILZ001-002-007-009-015-016-024-161500-
NORTHWEST ILLINOIS

CITY           SKY/WX    TMP DP  RH WIND       PRES   REMARKS
MOLINE         SUNNY     73  66  78 E9        29.94F
STERLING*      SUNNY     73  68  84 E7        29.98S
SAVANNA*       SUNNY     73  65  77 SE5       29.97F
$$

ILZ003-004-008-010-011-017-018-161500-
NORTH CENTRAL ILLINOIS

CITY           SKY/WX    TMP DP  RH WIND       PRES   REMARKS
ROCKFORD       PTSUNNY   73  63  70 E8        30.01S
FREEPORT*      CLOUDY    66  64  93 E6        30.01S
ROCHELLE*      SUNNY     73  66  79 SE9       30.00S
DE KALB*       SUNNY     73  67  80 E9        30.01S
PERU*          SUNNY     72  65  80 E7        29.99S
$$

ILZ005-006-012>014-019>023-161500-
NORTHEAST ILLINOIS

CITY           SKY/WX    TMP DP  RH WIND       PRES   REMARKS
CHICAGO-OHARE  SUNNY     76  65  68 E9        30.00F
CHICAGO-MIDWAY MOSUNNY   77  67  71 E8        30.00F
AURORA         SUNNY     76  67  73 SE10      30.00F
LANSING*       SUNNY     74  64  70 SE5       30.01S
JOLIET*        SUNNY     76  68  77 E7        30.00S
WAUKEGAN       MOSUNNY   72  68  87 E9        30.01S
DUPAGE AIRPORT SUNNY     74  68  81 E6        30.00S
KANKAKEE*      SUNNY     73  68  86 SE5       30.01S
WHEELING       SUNNY     74  68  81 VRB3      30.02S
MORRIS*        SUNNY     74  68  82 E5        29.98F
ROMEOVILLE*    SUNNY     75  65  69 SE6       30.00S
NORTHERLY ISL    N/A     75  66  73 E7          N/A
$$

LMZ740>746-161500-
SOUTHERN LAKE MICHIGAN

STATION/POSITION SKY/WX   TEMP    WIND        PRES    VSBY  WAVE
                          AIR SEA DIR/SP/G                  HT/PER
                          (F)     (DEG/KT/KT) (MB)    (MI)  (FT/S)
SOUTHERN BUOY              70 71   70/  4/  4 1016.8          1/ 4
WILMETTE HARBOR            72 72   90/  6/  8   N/A           2/ 4
HARRISON CRIB              73     100/  9/ 10   N/A
CALUMET HARBOR             73      70/  6/  8 1015.7F
BURNS HARBOR               73      80/  5/  8 1016.6F
MICHIGAN CITY              72     110/  5/  6   N/A
MICHIGAN CITY 6N           72 74  100/  6/  8   N/A           2/ 4
ST. JOSEPH                 72 73  160/  2/  4 1016.4          1/ 4
$$

ILZ025>027-034>036-040-047-049-050-058-095>099-161500-
WEST-CENTRAL ILLINOIS

CITY           SKY/WX    TMP DP  RH WIND       PRES   REMARKS
QUINCY         CLOUDY    75  71  87 SE8       29.93R
GALESBURG*     CLOUDY    74  69  83 SE6       29.95F
MACOMB*        MOSUNNY   73  72  95 SE6       29.97R
JACKSONVILLE*  CLOUDY    75  71  87 SE7       29.95R
PITTSFIELD*    CLOUDY    74  73  96 SE6       29.95S
$$

ILZ028>032-037-038-041>044-048-051>054-059>061-161500-
CENTRAL ILLINOIS

CITY           SKY/WX    TMP DP  RH WIND       PRES   REMARKS
PONTIAC        SUNNY     73  73  98 CALM      30.00R
BLOOMINGTON    SUNNY     76  72  87 SE9       30.00R
DECATUR        PTSUNNY   78  73  84 SE6       29.99R HX  81
PEORIA         SUNNY     77  71  82 SE6       29.96S
LACON*         SUNNY     73  69  88 E5        29.96S
LINCOLN*       SUNNY     78  74  88 SE6       29.98R HX  81
SPRINGFIELD    CLOUDY    79  73  82 SE8       29.95F HX  82
TAYLORVILLE    CLOUDY    75  73  92 SE7       29.97S
$$

ILZ033-039-045-046-055>057-062-063-161500-
EAST-CENTRAL ILLINOIS

CITY           SKY/WX    TMP DP  RH WIND       PRES   REMARKS
CHAMPAIGN      MOSUNNY   77  72  84 SE5       30.00F
RANTOUL*       SUNNY     78  73  85 SE5       30.00F HX  80
MATTOON        PTSUNNY   77  73  87 SE6       29.99S
PARIS*         SUNNY     78  73  86 SE6       30.02S
$$

ILZ079-100>102-161500-
SOUTHWEST ILLINOIS

CITY           SKY/WX    TMP DP  RH WIND       PRES   REMARKS
ALTON          CLOUDY    73  73 100 SE7       29.97R
BELLEVILLE     CLOUDY    77  73  89 S6        29.98R
CAHOKIA*       CLOUDY    78  73  84 SW5       29.97R HX  81
SPARTA*        CLOUDY    75  73  93 SE9       29.99R
$$

ILZ064>066-069>071-074>076-080>082-084>086-088>090-092>094-161500-
SOUTH-CENTRAL ILLINOIS

CITY           SKY/WX    TMP DP  RH WIND       PRES   REMARKS
CARBONDALE     CLOUDY    76  75  97 SE8       29.99R
CAIRO*         CLOUDY    77  75  94 S5        30.00R
EFFINGHAM*     CLOUDY    77  75  92 E9        30.00S
MARION         MOSUNNY   77  77 100 SE9       30.00R
MT. VERNON     CLOUDY    75  73  93 SE7       30.00R
CENTRALIA*     CLOUDY    76  74  94 S6        29.98R
SALEM*         CLOUDY    77  72  86 S6        29.99R
METROPOLIS*    SUNNY     80  76  89 S5        30.00S HX  86
$$

ILZ067-068-072-073-078-083-087-091-161500-
SOUTHEAST ILLINOIS

CITY           SKY/WX    TMP DP  RH WIND       PRES   REMARKS
LAWRENCEVILLE  SUNNY     78  74  87 SE5       30.00S FOG     HX  81
FLORA*         MOSUNNY   76  73  90 S3        30.00R
FAIRFIELD*     CLOUDY    76  74  92 S3        30.00R
HARRISBURG*    PTSUNNY   74  74 100 CALM      30.02R FOG
ROBINSON*      SUNNY     77  73  87 CALM      30.01S
CARMI*         LGT RAIN  75  74  98 S9        30.02R
$$

ABBREVIATIONS USED IN REMARKS
   TC - TEMPERATURE IN CELSIUS
  WCI - WIND CHILL INDEX
   HX - HEAT INDEX
  VSB - VISIBILITY
$$





USA.gov is the U.S. government's official web portal to all federal, state and local government web resources and services.